This is the latest recevied weather packets stored in our database for station/object KN6KDD. If no packets are shown the sender has not sent any weather packets the latest 1 day(s).
| Time | Temp. | Humidity | Pressure | Rain* | Wind** | Luminosity | Snow |
|---|---|---|---|---|---|---|---|
| 1778041210 | 12.22° C | 88% | 1357.1 hPa | 0 mm | - | 0 W/m² | - |
| 1778039998 | 12.22° C | 89% | 1356.8 hPa | 0 mm | - | 0 W/m² | - |
| 1778039695 | 12.22° C | 88% | 1356.8 hPa | 0 mm | - | 0 W/m² | - |
| 1778039089 | 12.22° C | 88% | 1356.4 hPa | 0 mm | - | 0 W/m² | - |
| 1778038786 | 12.22° C | 88% | 1356.5 hPa | 0 mm | - | 0 W/m² | - |
| 1778038484 | 12.22° C | 88% | 1356.1 hPa | 0 mm | - | 0 W/m² | - |
| 1778038180 | 12.22° C | 87% | 1356.2 hPa | 0 mm | - | 0 W/m² | - |
| 1778037877 | 12.78° C | 88% | 1356.4 hPa | 0 mm | - | 0 W/m² | - |
| 1778037573 | 12.78° C | 87% | 1356 hPa | 0 mm | - | 0 W/m² | - |
| 1778037271 | 12.78° C | 87% | 1356.1 hPa | 0 mm | - | 1 W/m² | - |
| 1778036969 | 12.78° C | 87% | 1356 hPa | 0 mm | - | 1 W/m² | - |
| 1778036667 | 12.78° C | 87% | 1355.8 hPa | 0 mm | - | 2 W/m² | - |
| 1778036363 | 12.78° C | 86% | 1355.8 hPa | 0 mm | - | 4 W/m² | - |
| 1778036060 | 12.78° C | 86% | 1355.6 hPa | 0 mm | - | 5 W/m² | - |
| 1778035757 | 13.33° C | 86% | 1355.6 hPa | 0 mm | - | 8 W/m² | - |
| 1778035454 | 13.33° C | 85% | 1355.5 hPa | 0 mm | - | 11 W/m² | - |
| 1778034847 | 13.33° C | 84% | 1355.3 hPa | 0 mm | - | 16 W/m² | - |
| 1778034241 | 13.89° C | 84% | 1355.5 hPa | 0 mm | - | 19 W/m² | - |
| 1778033939 | 13.89° C | 84% | 1355.3 hPa | 0 mm | - | 25 W/m² | - |
| 1778033635 | 13.89° C | 84% | 1355.3 hPa | 0 mm | - | 30 W/m² | - |
| 1778033332 | 14.44° C | 83% | 1355.1 hPa | 0 mm | - | 30 W/m² | - |
| 1778032425 | 14.44° C | 82% | 1355.1 hPa | 0 mm | - | 48 W/m² | - |
| 1778032122 | 15° C | 81% | 1355.1 hPa | 0 mm | - | 54 W/m² | - |
| 1778031515 | 15° C | 81% | 1354.9 hPa | 0 mm | - | 66 W/m² | - |
| 1778031213 | 15° C | 81% | 1355.1 hPa | 0 mm | - | 81 W/m² | - |
* Rain latest hour (hover to see other rain measurements)
** Current wind speed in m/s (hover to see current wind gust speed)